www.pogodaiklimat.ru

Погода и климат >> Архив погоды >> Нигер >> Агадес


ПОГОДА в Агадесе

  • Прогноз погоды в Агадесе
  • Монитор погоды в Агадесе

АРХИВ ПОГОДЫ в Агадесе

Время (UTC), дата Ветер
(напр.,м/с)
 
Видим.   Явления Облачность Т
(С)
Тd
(С)
f
(%)
Тe
(С)
Тes
(С)
Комфортность P
(гПа)
Po
(гПа)
Тmin
(С)
Tmax
(С)
R
(мм)
R24
(мм)
S
(см)
18 12.01 штиль 0 10 км 9/0
[Ac und Ci sp]
+26.5 +2.7 21 +25 +25 комфорт 1012.9 956.1 +31.7
06 13.01 В 14 7000 м пыль 6/0
[Ac trans Ci sp]
+15.5 -7.2 20 +13 +13 1014.8 958.0 +15.1
09 13.01 В 14 10 км 6/0
[Ci sp]
+22.6 -6.2 14 +21 +21 комфорт 1015.7 959.0
12 13.01 В 4 10 км 6/0
[Ci sp]
+27.6 -1.0 15 +25 +33 комфорт 1014.2 957.9
15 13.01 ЮВ 4 10 км 8/0
[Cs]
+28.2 -4.6 11 +25 +27 комфорт 1013.0 956.7
18 13.01 В 17 8000 м пыльный позёмок 4/0
[Ci sp]
+21.6 -7.5 14 +20 +20 1014.8 957.5 +29.6
06 14.01 В 6 10 км 1/0
[Ci sp]
+11.7 -6.4 28 +9 +9 1016.4 958.6 +11.1
09 14.01 В 14 10 км 1/0
[Ci sp]
+19.9 -8.0 14 +18 +18 1017.6 960.2
12 14.01 В 10 10 км 1/0
[Ci sp]
+24.9 -2.1 17 +23 +24 комфорт 1016.4 959.3
15 14.01 В 4 10 км 1/0
[Ci sp]
+25.7 -4.2 14 +23 +26 комфорт 1015.1 957.9
18 14.01 В 12 10 км 6/0
[Ci sp]
+24.0 -8.3 11 +22 +22 комфорт 1016.1 958.6 +26.4
09 15.01 В 10 10 км 3/0
[Ci sp]
+19.0 -6.1 18 +18 +18 1017.7 960.2
12 15.01 ЮВ 8 10 км 3/0
[Ci sp]
+24.5 -5.0 14 +22 +25 комфорт 1016.6 959.3
15 15.01 ЮВ 6 10 км 3/0
[Ci sp]
+25.5 -6.4 12 +23 +25 комфорт 1015.4 957.9
18 15.01 ЮВ 12 10 км 1/0
[Ci sp]
+21.0 -10.8 11 +19 +19 1016.6 958.6 +27.0
03 16.01 В 2 10 км 4/0
[Ci sp]
+9.6 -8.0 28 +9 +9 1016.5 958.9
06 16.01 В 6 10 км 3/0
[Ci sp]
+8.1 -9.1 28 +5 +5 1017.2 958.9 +8.0
09 16.01 В 23 8000 м пыльный позёмок ясно +19.5 -5.3 18 +17 +17 1017.9 960.2
12 16.01 В 14 10 км 3/0
[Ci sp]
+24.8 -7.5 11 +22 +22 комфорт 1015.7 958.4
15 16.01 В 14 10 км 3/0
[Ci sp]
+26.0 -7.7 10 +23 +23 комфорт 1014.4 957.0
18 16.01 В 12 10 км 3/0
[Ci sp]
+21.5 -9.7 11 +20 +20 1015.3 957.3 +26.5
06 17.01 В 8 10 км 9/0
[Cs]
+10.1 -7.4 28 +7 +7 1016.1 958.2 +10.0
09 17.01 В 22 10 км 1/0
[Ci sp]
+20.8 -8.2 13 +19 +19 1016.8 959.4
12 17.01 В 16 10 км 1/0
[Ci sp]
+25.6 -6.7 11 +23 +23 комфорт 1015.5 958.3
15 17.01 В 14 10 км 1/0
[Ci sp]
+26.5 -4.9 12 +24 +24 комфорт 1013.6 956.5
18 17.01 В 12 10 км 1/0
[Ci sp]
+22.7 -4.8 16 +21 +21 комфорт 1014.5 956.8 +27.0
21 17.01 В 12 10 км 1/0
[Ci sp]
+22.7 -4.8 16 +21 +21 комфорт 1014.5 956.8 +27.0
06 18.01 В 6 8000 м пыль 3/0
[Ci sp]
+12.4 -6.4 26 +10 +10 1015.1 957.6 +10.0
09 18.01 В 20 5000 м пыльный позёмок ясно +22.5 -4.4 16 +21 +21 комфорт 1016.1 959.1
12 18.01 В 17 7000 м пыль ясно +27.7 -3.5 13 +25 +25 комфорт 1014.4 957.7
15 18.01 ЮВ 12 8000 м пыль 4/0
[Ci sp]
+29.0 -8.5 8 +25 +25 комфорт 1012.4 955.6
18 18.01 ЮВ 10 8000 м пыль 6/0
[Ci sp]
+25.0 -6.8 12 +23 +23 комфорт 1013.3 956.1 +29.5
06 19.01 В 8 10 км 9/0
[Cs]
+14.4 -8.8 19 +13 +13 1013.1 956.1 +14.4
09 19.01 В 17 7000 м пыльный позёмок 9/0
[Cs]
+23.0 -7.9 12 +21 +21 комфорт 1014.2 957.5
12 19.01 В 12 10 км 9/0 1000 м
[Ac trans Ci sp]
+27.7 -6.2 10 +24 +24 комфорт 1012.5 956.2

 

Местоположение метеостанции Агадес (Нигер): широта 16.97 долгота 7.97 высота над уровнем моря 502 м.

В архиве по умолчанию представлена погода в Агадесе за последнюю неделю. Архивные данные за месяц целиком и за предыдущие месяцы, начиная с января 2011 года, Вы можете получить, выбрав интересующий диапазон дат из раскрывающегося списка и нажав кнопку "Ввод!".


*Определитесь, кто Вы:
робот инопланетянин человек

Внимание! Время в таблицах - всемирное. Для получения местного времени необходимо прибавить поправку, которая равна 1 ч.

Смотрите также архив погоды в соседних городах и на ближайших метеорологических станциях:

Погода в Зиндере (Нигер) (371 км)
Погода в Тахве (Нигер) (371 км)
Погода в Ин-Геззаме (Алжир) (372 км)
Погода в Ин-Геззам аэропорту (Алжир) (372 км)
Погода в Маради (Нигер) (401 км)
Погода в Гуре (Нигер) (416 км)
Погода в Анебарака (Алжир) (445 км)
Погода в Магарьа (Нигер) (456 км)
Погода в Вирнин-Конни (Нигер) (458 км)
Погода в Кано (Нигерия) (551 км)

Пояснения к столбцам:

Ветер - указаны скорость ветра в м/с - средняя за 10 мин, порывы в срок и между сроками (в фигурных скобках) и направление, откуда дует ветер: С - северный, СВ - северо-восточный, В - восточный, ЮВ - юго-восточный, Ю - южный, ЮЗ - юго-западный, З - западный, СЗ - северо-западный.
Видимость - горизонтальная дальность видимости в метрах или километрах. При видимости от 1 до 10 км при отсутствии осадков обычно наблюдается дымка, при ухудшении видимости до 1 км и менее - туман. В сухую погоду видимость может ухудшаться дымом, пылью или мглою.
Явления - указаны атмосферные явления, наблюдавшиеся в срок или в последний час перед сроком; фигурными скобками обозначены явления, наблюдавшиеся между сроками (за 1-3 часа до срока); квадратными скобками обозначены град или гололедные отложения с указанием их диаметра в мм.
Облачность - указаны через наклонную черту общая и нижняя облачность в баллах и высота нижней границы облаков в метрах; квадратными скобками обозначены формы облаков: Ci - перистые, Cs - перисто-слоистые, Cc - перисто-кучевые, Ac - высококучевые, As - высокослоистые, Sc - слоисто-кучевые, Ns - слоисто-дождевые, Cu - кучевые, Cb - кучево-дождевые. Подробнее классификацию облаков см. в Атласе облаков (PDF).
T - Температура воздуха - температура, измеренная на высоте 2 м над землей.
Td - Температура точки росы - температура, при понижении до которой содержащийся в воздухе водяной пар достигнет насыщения.
f - Относительная влажность воздуха - влажноcть воздуха, измеренная на высоте 2 м над землей.
Te - Эффективная температура - температура, которую ощущает одетый по сезону человек в тени. Характеристика душности погоды. При расчете учитывается влияние влажности воздуха и скорости ветра на теплоощущения человека.
Tes - Эффективная температура на солнце - температура, которую ощущает человек, с поправкой на солнечный нагрев. Характеристика знойности погоды. Зависит от высоты солнца над горизонтом, облачности и скорости ветра. Ночью, в пасмурную погоду, а также при ветре 12 м/с и более поправка равна нулю.
P - Атмосферное давление - приведенное к уровню моря атмосферное давление.
Po - Атмосферное давление - измеренное на уровне метеостанции атмосферное давление.
Tmin - Минимальная температура - минимум температуры воздуха на высоте 2 м над землей.
Tmax - Максимальная температура - максимум температуры воздуха на высоте 2 м над землей.
R - Количество осадков - Количество выпавших осадков за период времени, мм. При наведении курсора мыши на число - период времени, за который выпало указанное количество осадков.
R24 - Количество осадков - Количество выпавших осадков за 24 часа, мм.
S - Снежный покров - Высота снежного покрова, см. При наведении курсора мыши на число - состояние снежного покрова и степень покрытия местности в баллах.